Overview Statistics Trail Chart Weather Telemetry Raw packets
 

This is the latest recevied weather packets stored in our database for station/object OK2VOP-6. If no packets are shown the sender has not sent any weather packets the latest 10 day(s).

<< 4 5 6 7 8 9 10 >>
Time Temp. Humidity Pressure Rain* Wind** Luminosity Snow
1788540923 29.44° C 15% - 0 mm - - -
1788539718 30° C 14% - 0 mm - - -
1788537308 31.11° C 12% - 0 mm - - -
1788536103 31.11° C 11% - 0 mm - - -
1788534899 31.67° C 9% - 0 mm - - -
1788533694 32.78° C 8% - 0 mm - - -
1788532489 32.22° C 8% - 0 mm - - -
1788531284 32.22° C 10% - 0 mm - - -
1788530080 32.78° C 8% - 0 mm - - -
1788528874 31.67° C 11% - 0 mm - - -
1788527669 30° C 14% - 0 mm - - -
1788526465 31.11° C 12% - 0 mm - - -
1788525260 31.11° C 13% - 0 mm - - -
1788524054 29.44° C 14% - 0 mm - - -
1788522850 28.89° C 17% - 0 mm - - -
1788521645 28.89° C 18% - 0 mm - - -
1788520440 28.33° C 18% - 0 mm - - -
1788519235 27.78° C 20% - 0 mm - - -
1788518031 27.78° C 20% - 0 mm - - -
1788516827 27.78° C 20% - 0 mm - - -
1788515621 27.78° C 21% - 0 mm - - -
1788514416 27.78° C 23% - 0 mm - - -
1788513211 27.22° C 24% - 0 mm - - -
1788512007 26.11° C 27% - 0 mm - - -
1788510804 25.56° C 27% - 0 mm - - -

* Rain latest hour (hover to see other rain measurements)
** Current wind speed in m/s (hover to see current wind gust speed)